Time,TemperatureF,DewpointF,PressureIn,WindDirection,WindDirectionDegrees,WindSpeedMPH,WindSpeedGustMPH,Humidity,HourlyPrecipIn,Conditions,Clouds,dailyrainin,SoftwareType,DateUTC
2013-08-19 00:01:00,78.1,49.7,29.79,NNW,329,0.0,0.0,37,0.00,,,0.00,WeatherCatV1.21B27,2013-08-19 07:01:00,
2013-08-19 00:06:00,77.8,49.4,29.79,NNW,329,0.0,0.0,37,0.00,,,0.00,WeatherCatV1.21B27,2013-08-19 07:06:00,
2013-08-19 00:11:00,77.7,48.6,29.79,NNW,329,0.0,0.0,36,0.00,,,0.00,WeatherCatV1.21B27,2013-08-19 07:11:00,
2013-08-19 00:16:00,77.8,48.7,29.78,NNW,329,0.0,0.0,36,0.00,,,0.00,WeatherCatV1.21B27,2013-08-19 07:16:00,
2013-08-19 00:21:00,77.8,49.4,29.78,NNW,329,0.0,0.0,37,0.00,,,0.00,WeatherCatV1.21B27,2013-08-19 07:21:00,
2013-08-19 00:26:00,77.8,50.8,29.78,NNW,329,0.0,0.0,39,0.00,,,0.00,WeatherCatV1.21B27,2013-08-19 07:26:00,
2013-08-19 00:31:00,77.8,50.8,29.78,NNW,329,0.0,1.0,39,0.00,,,0.00,WeatherCatV1.21B27,2013-08-19 07:31:00,
2013-08-19 00:36:00,77.6,52.0,29.78,NNW,329,0.0,0.0,41,0.00,,,0.00,WeatherCatV1.21B27,2013-08-19 07:36:00,
2013-08-19 00:41:00,77.4,51.8,29.78,NNW,329,0.0,0.0,41,0.00,,,0.00,WeatherCatV1.21B27,2013-08-19 07:41:00,
2013-08-19 00:46:00,77.2,52.3,29.78,NNW,329,0.0,0.0,42,0.00,,,0.00,WeatherCatV1.21B27,2013-08-19 07:46:00,
2013-08-19 00:51:00,77.0,52.1,29.78,NNW,329,0.0,0.0,42,0.00,,,0.00,WeatherCatV1.21B27,2013-08-19 07:51:00,
2013-08-19 00:56:00,76.8,52.6,29.78,NNW,329,0.0,0.0,43,0.00,,,0.00,WeatherCatV1.21B27,2013-08-19 07:56:00,
2013-08-19 01:01:00,76.7,52.5,29.78,NNW,329,0.0,0.0,43,0.00,,,0.00,WeatherCatV1.21B27,2013-08-19 08:01:00,
2013-08-19 01:06:00,76.4,52.2,29.78,NNW,329,0.0,0.0,43,0.00,,,0.00,WeatherCatV1.21B27,2013-08-19 08:06:00,
2013-08-19 01:11:00,76.3,52.1,29.78,NNW,329,0.0,0.0,43,0.00,,,0.00,WeatherCatV1.21B27,2013-08-19 08:11:00,
2013-08-19 01:16:00,76.2,52.0,29.78,NNW,329,0.0,0.0,43,0.00,,,0.00,WeatherCatV1.21B27,2013-08-19 08:16:00,
2013-08-19 01:21:00,76.1,51.3,29.78,NNW,329,0.0,0.0,42,0.00,,,0.00,WeatherCatV1.21B27,2013-08-19 08:21:00,
2013-08-19 01:26:00,76.0,50.6,29.78,NNW,329,0.0,0.0,41,0.00,,,0.00,WeatherCatV1.21B27,2013-08-19 08:26:00,
2013-08-19 01:31:00,75.9,49.8,29.77,NNW,329,0.0,0.0,40,0.00,,,0.00,WeatherCatV1.21B27,2013-08-19 08:31:00,
2013-08-19 01:36:00,75.9,49.2,29.77,NNW,329,0.0,0.0,39,0.00,,,0.00,WeatherCatV1.21B27,2013-08-19 08:36:00,
2013-08-19 01:41:00,75.9,49.2,29.77,NNW,329,0.0,0.0,39,0.00,,,0.00,WeatherCatV1.21B27,2013-08-19 08:41:00,
2013-08-19 01:46:00,76.0,48.5,29.77,NNW,329,0.0,0.0,38,0.00,,,0.00,WeatherCatV1.21B27,2013-08-19 08:46:00,
2013-08-19 01:51:00,76.2,51.4,29.77,NNW,329,0.0,0.0,42,0.00,,,0.00,WeatherCatV1.21B27,2013-08-19 08:51:00,
2013-08-19 01:56:00,76.2,49.4,29.77,NNW,329,0.0,0.0,39,0.00,,,0.00,WeatherCatV1.21B27,2013-08-19 08:56:00,
2013-08-19 02:01:00,76.3,48.1,29.76,NNW,329,0.0,1.0,37,0.00,,,0.00,WeatherCatV1.21B27,2013-08-19 09:01:00,
2013-08-19 02:06:00,76.4,49.6,29.76,NNW,329,0.0,1.0,39,0.00,,,0.00,WeatherCatV1.21B27,2013-08-19 09:06:00,
2013-08-19 02:11:00,76.6,47.6,29.76,NNW,329,0.0,0.0,36,0.00,,,0.00,WeatherCatV1.21B27,2013-08-19 09:11:00,
2013-08-19 02:16:00,76.8,47.8,29.76,NNW,329,0.0,0.0,36,0.00,,,0.00,WeatherCatV1.21B27,2013-08-19 09:16:00,
2013-08-19 02:21:00,77.0,48.0,29.76,NNW,329,0.0,0.0,36,0.00,,,0.00,WeatherCatV1.21B27,2013-08-19 09:21:00,
2013-08-19 02:26:00,77.1,48.1,29.76,NNW,329,0.0,0.0,36,0.00,,,0.00,WeatherCatV1.21B27,2013-08-19 09:26:00,
2013-08-19 02:31:00,77.2,49.6,29.76,NNW,329,0.0,0.0,38,0.00,,,0.00,WeatherCatV1.21B27,2013-08-19 09:31:00,
2013-08-19 02:36:00,77.3,51.7,29.76,NNW,329,0.0,0.0,41,0.00,,,0.00,WeatherCatV1.21B27,2013-08-19 09:36:00,
2013-08-19 02:41:00,77.3,52.4,29.76,NNW,329,0.0,0.0,42,0.00,,,0.00,WeatherCatV1.21B27,2013-08-19 09:41:00,
2013-08-19 02:46:00,77.1,52.2,29.76,NNW,329,0.0,0.0,42,0.00,,,0.00,WeatherCatV1.21B27,2013-08-19 09:46:00,
2013-08-19 02:51:00,77.0,52.8,29.76,NNW,329,0.0,0.0,43,0.00,,,0.00,WeatherCatV1.21B27,2013-08-19 09:51:00,
2013-08-19 02:56:00,76.8,52.0,29.76,NNW,329,0.0,0.0,42,0.00,,,0.00,WeatherCatV1.21B27,2013-08-19 09:56:00,
2013-08-19 03:01:00,76.6,52.4,29.75,NNW,329,0.0,0.0,43,0.00,,,0.00,WeatherCatV1.21B27,2013-08-19 10:01:00,
2013-08-19 03:06:00,76.3,50.8,29.75,NNW,329,0.0,0.0,41,0.00,,,0.00,WeatherCatV1.21B27,2013-08-19 10:06:00,
2013-08-19 03:11:00,76.1,50.7,29.75,NNW,329,0.0,0.0,41,0.00,,,0.00,WeatherCatV1.21B27,2013-08-19 10:11:00,
2013-08-19 03:16:00,76.0,49.9,29.75,NNW,329,0.0,0.0,40,0.00,,,0.00,WeatherCatV1.21B27,2013-08-19 10:16:00,
2013-08-19 03:21:00,76.0,49.9,29.75,NNW,329,0.0,0.0,40,0.00,,,0.00,WeatherCatV1.21B27,2013-08-19 10:21:00,
2013-08-19 03:26:00,76.0,50.6,29.75,NNW,329,0.0,0.0,41,0.00,,,0.00,WeatherCatV1.21B27,2013-08-19 10:26:00,
2013-08-19 03:31:00,75.9,51.8,29.75,NNW,329,0.0,0.0,43,0.00,,,0.00,WeatherCatV1.21B27,2013-08-19 10:31:00,
2013-08-19 03:36:00,75.8,51.7,29.75,NNW,329,0.0,0.0,43,0.00,,,0.00,WeatherCatV1.21B27,2013-08-19 10:36:00,
2013-08-19 03:41:00,75.4,52.0,29.75,NNW,329,0.0,0.0,44,0.00,,,0.00,WeatherCatV1.21B27,2013-08-19 10:41:00,
2013-08-19 03:46:00,74.8,51.4,29.75,NNW,329,0.0,0.0,44,0.00,,,0.00,WeatherCatV1.21B27,2013-08-19 10:46:00,
2013-08-19 03:51:00,74.1,51.4,29.75,NNW,329,0.0,0.0,45,0.00,,,0.00,WeatherCatV1.21B27,2013-08-19 10:51:00,
2013-08-19 03:56:00,73.5,50.8,29.75,NNW,329,0.0,1.0,45,0.00,,,0.00,WeatherCatV1.21B27,2013-08-19 10:56:00,
2013-08-19 04:01:00,73.2,50.6,29.75,NNW,329,0.0,0.0,45,0.00,,,0.00,WeatherCatV1.21B27,2013-08-19 11:01:00,
2013-08-19 04:06:00,73.0,51.0,29.75,NNW,329,0.0,0.0,46,0.00,,,0.00,WeatherCatV1.21B27,2013-08-19 11:06:00,
2013-08-19 04:11:00,72.9,50.9,29.75,NNW,329,0.0,0.0,46,0.00,,,0.00,WeatherCatV1.21B27,2013-08-19 11:11:00,
2013-08-19 04:16:00,72.9,50.3,29.75,NNW,329,0.0,0.0,45,0.00,,,0.00,WeatherCatV1.21B27,2013-08-19 11:16:00,
2013-08-19 04:21:00,72.9,50.3,29.75,NNW,329,0.0,1.0,45,0.00,,,0.00,WeatherCatV1.21B27,2013-08-19 11:21:00,
2013-08-19 04:26:00,73.0,49.8,29.75,NNW,329,0.0,0.0,44,0.00,,,0.00,WeatherCatV1.21B27,2013-08-19 11:26:00,
2013-08-19 04:31:00,73.1,49.3,29.75,NNW,329,0.0,0.0,43,0.00,,,0.00,WeatherCatV1.21B27,2013-08-19 11:31:00,
2013-08-19 04:36:00,73.4,50.1,29.75,NNW,329,0.0,0.0,44,0.00,,,0.00,WeatherCatV1.21B27,2013-08-19 11:36:00,
2013-08-19 04:41:00,73.6,50.3,29.75,NNW,329,0.0,0.0,44,0.00,,,0.00,WeatherCatV1.21B27,2013-08-19 11:41:00,
2013-08-19 04:46:00,73.8,50.5,29.75,NNW,329,0.0,0.0,44,0.00,,,0.00,WeatherCatV1.21B27,2013-08-19 11:46:00,
2013-08-19 04:51:00,73.8,50.5,29.75,NNW,329,0.0,0.0,44,0.00,,,0.00,WeatherCatV1.21B27,2013-08-19 11:51:00,
2013-08-19 04:56:00,73.8,49.9,29.75,NNW,329,0.0,0.0,43,0.00,,,0.00,WeatherCatV1.21B27,2013-08-19 11:56:00,
2013-08-19 05:01:00,73.8,49.9,29.76,NNW,329,0.0,0.0,43,0.00,,,0.00,WeatherCatV1.21B27,2013-08-19 12:01:00,
2013-08-19 05:06:00,73.7,49.8,29.76,NNW,329,0.0,0.0,43,0.00,,,0.00,WeatherCatV1.21B27,2013-08-19 12:06:00,
2013-08-19 05:11:00,73.6,50.3,29.76,NNW,329,0.0,0.0,44,0.00,,,0.00,WeatherCatV1.21B27,2013-08-19 12:11:00,
2013-08-19 05:16:00,73.5,50.8,29.75,NNW,329,0.0,0.0,45,0.00,,,0.00,WeatherCatV1.21B27,2013-08-19 12:16:00,
2013-08-19 05:21:00,73.5,51.4,29.75,NNW,329,0.0,1.0,46,0.00,,,0.00,WeatherCatV1.21B27,2013-08-19 12:21:00,
2013-08-19 05:26:00,73.5,50.8,29.75,NNW,329,0.0,0.0,45,0.00,,,0.00,WeatherCatV1.21B27,2013-08-19 12:26:00,
2013-08-19 05:31:00,73.4,51.3,29.76,NNW,329,1.0,1.0,46,0.00,,,0.00,WeatherCatV1.21B27,2013-08-19 12:31:00,
2013-08-19 05:36:00,73.4,51.3,29.76,NNW,329,0.0,0.0,46,0.00,,,0.00,WeatherCatV1.21B27,2013-08-19 12:36:00,
2013-08-19 05:41:00,73.5,50.2,29.76,NNW,329,0.0,1.0,44,0.00,,,0.00,WeatherCatV1.21B27,2013-08-19 12:41:00,
2013-08-19 05:46:00,73.5,47.7,29.76,NNW,329,0.0,1.0,40,0.00,,,0.00,WeatherCatV1.21B27,2013-08-19 12:46:00,
2013-08-19 05:51:00,73.7,46.5,29.76,NNW,329,0.0,0.0,38,0.00,,,0.00,WeatherCatV1.21B27,2013-08-19 12:51:00,
2013-08-19 05:56:00,74.3,47.0,29.76,NNW,329,0.0,0.0,38,0.00,,,0.00,WeatherCatV1.21B27,2013-08-19 12:56:00,
2013-08-19 06:01:00,74.7,46.7,29.76,NNW,329,0.0,0.0,37,0.00,,,0.00,WeatherCatV1.21B27,2013-08-19 13:01:00,
2013-08-19 06:06:00,75.5,48.1,29.76,NNW,329,0.0,0.0,38,0.00,,,0.00,WeatherCatV1.21B27,2013-08-19 13:06:00,
2013-08-19 06:11:00,75.9,49.2,29.76,NNW,329,0.0,0.0,39,0.00,,,0.00,WeatherCatV1.21B27,2013-08-19 13:11:00,
2013-08-19 06:16:00,76.2,50.1,29.77,NNW,329,0.0,0.0,40,0.00,,,0.00,WeatherCatV1.21B27,2013-08-19 13:16:00,
2013-08-19 06:21:00,76.1,50.0,29.77,NNW,329,0.0,0.0,40,0.00,,,0.00,WeatherCatV1.21B27,2013-08-19 13:21:00,
2013-08-19 06:26:00,76.0,49.9,29.77,NNW,329,0.0,0.0,40,0.00,,,0.00,WeatherCatV1.21B27,2013-08-19 13:26:00,
2013-08-19 06:31:00,75.9,49.8,29.77,NNW,329,0.0,0.0,40,0.00,,,0.00,WeatherCatV1.21B27,2013-08-19 13:31:00,
2013-08-19 06:36:00,75.8,49.7,29.77,NNW,329,0.0,0.0,40,0.00,,,0.00,WeatherCatV1.21B27,2013-08-19 13:36:00,
2013-08-19 06:41:00,75.6,49.6,29.77,NNW,329,0.0,1.0,40,0.00,,,0.00,WeatherCatV1.21B27,2013-08-19 13:41:00,
2013-08-19 06:46:00,75.5,48.8,29.77,NNW,329,0.0,0.0,39,0.00,,,0.00,WeatherCatV1.21B27,2013-08-19 13:46:00,
2013-08-19 06:51:00,75.6,48.2,29.77,NNW,329,0.0,0.0,38,0.00,,,0.00,WeatherCatV1.21B27,2013-08-19 13:51:00,
2013-08-19 06:56:00,75.8,49.1,29.77,NNW,329,0.0,0.0,39,0.00,,,0.00,WeatherCatV1.21B27,2013-08-19 13:56:00,
2013-08-19 07:01:00,76.1,49.3,29.78,NNW,330,0.0,0.0,39,0.00,,,0.00,WeatherCatV1.21B27,2013-08-19 14:01:00,
2013-08-19 07:06:00,76.2,49.4,29.78,NNW,330,0.0,0.0,39,0.00,,,0.00,WeatherCatV1.21B27,2013-08-19 14:06:00,
2013-08-19 07:11:00,76.4,50.3,29.78,NNW,330,0.0,0.0,40,0.00,,,0.00,WeatherCatV1.21B27,2013-08-19 14:11:00,
2013-08-19 07:16:00,76.5,49.7,29.78,NNW,330,0.0,0.0,39,0.00,,,0.00,WeatherCatV1.21B27,2013-08-19 14:16:00,
2013-08-19 07:21:00,76.7,50.5,29.78,NNW,330,0.0,0.0,40,0.00,,,0.00,WeatherCatV1.21B27,2013-08-19 14:21:00,
2013-08-19 07:26:00,76.8,50.6,29.78,NNW,330,0.0,0.0,40,0.00,,,0.00,WeatherCatV1.21B27,2013-08-19 14:26:00,
2013-08-19 07:31:00,76.8,51.3,29.78,NNW,330,0.0,0.0,41,0.00,,,0.00,WeatherCatV1.21B27,2013-08-19 14:31:00,
2013-08-19 07:36:00,76.8,52.0,29.78,NNW,330,0.0,1.0,42,0.00,,,0.00,WeatherCatV1.21B27,2013-08-19 14:36:00,
2013-08-19 07:41:00,76.8,52.6,29.78,NNW,330,0.0,0.0,43,0.00,,,0.00,WeatherCatV1.21B27,2013-08-19 14:41:00,
2013-08-19 07:46:00,76.8,52.6,29.78,NNW,330,0.0,1.0,43,0.00,,,0.00,WeatherCatV1.21B27,2013-08-19 14:46:00,
2013-08-19 07:51:00,76.9,50.0,29.78,NNW,330,0.0,0.0,39,0.00,,,0.00,WeatherCatV1.21B27,2013-08-19 14:51:00,
2013-08-19 07:56:00,77.1,51.6,29.78,SSE,165,0.0,0.0,41,0.00,,,0.00,WeatherCatV1.21B27,2013-08-19 14:56:00,
2013-08-19 08:01:00,77.4,49.8,29.79,SSE,165,0.0,0.0,38,0.00,,,0.00,WeatherCatV1.21B27,2013-08-19 15:01:00,
2013-08-19 08:06:00,77.7,50.0,29.79,SSE,165,0.0,0.0,38,0.00,,,0.00,WeatherCatV1.21B27,2013-08-19 15:06:00,
2013-08-19 08:11:00,77.9,50.2,29.79,SSE,165,0.0,0.0,38,0.00,,,0.00,WeatherCatV1.21B27,2013-08-19 15:11:00,
2013-08-19 08:16:00,78.2,50.5,29.80,SSE,165,0.0,1.0,38,0.00,,,0.00,WeatherCatV1.21B27,2013-08-19 15:16:00,
2013-08-19 08:21:00,78.3,51.3,29.80,SSE,165,0.0,1.0,39,0.00,,,0.00,WeatherCatV1.21B27,2013-08-19 15:21:00,
2013-08-19 08:27:00,78.4,51.4,29.80,SSE,165,0.0,0.0,39,0.00,,,0.00,WeatherCatV1.21B27,2013-08-19 15:27:00,
2013-08-19 08:32:00,78.6,51.5,29.80,SSE,165,0.0,0.0,39,0.00,,,0.00,WeatherCatV1.21B27,2013-08-19 15:32:00,
2013-08-19 08:37:00,78.8,51.7,29.80,SSE,165,0.0,0.0,39,0.00,,,0.00,WeatherCatV1.21B27,2013-08-19 15:37:00,
2013-08-19 08:42:00,79.0,51.9,29.80,SSE,165,0.0,1.0,39,0.00,,,0.00,WeatherCatV1.21B27,2013-08-19 15:42:00,
2013-08-19 08:47:00,79.3,52.2,29.80,SSE,165,0.0,1.0,39,0.00,,,0.00,WeatherCatV1.21B27,2013-08-19 15:47:00,
2013-08-19 08:52:00,79.7,53.2,29.80,SSE,165,0.0,0.0,40,0.00,,,0.00,WeatherCatV1.21B27,2013-08-19 15:52:00,
2013-08-19 08:57:00,80.1,53.6,29.80,SSE,164,0.0,0.0,40,0.00,,,0.00,WeatherCatV1.21B27,2013-08-19 15:57:00,
2013-08-19 09:02:00,80.4,54.5,29.80,SSE,164,0.0,0.0,41,0.00,,,0.00,WeatherCatV1.21B27,2013-08-19 16:02:00,
2013-08-19 09:07:00,80.7,54.8,29.80,SSE,164,0.0,1.0,41,0.00,,,0.00,WeatherCatV1.21B27,2013-08-19 16:07:00,
2013-08-19 09:12:00,80.7,54.1,29.80,SSE,164,0.0,0.0,40,0.00,,,0.00,WeatherCatV1.21B27,2013-08-19 16:12:00,
2013-08-19 09:17:00,80.6,55.4,29.81,SSE,164,0.0,0.0,42,0.00,,,0.00,WeatherCatV1.21B27,2013-08-19 16:17:00,
2013-08-19 09:22:00,80.5,55.3,29.81,SSE,163,1.0,2.0,42,0.00,,,0.00,WeatherCatV1.21B27,2013-08-19 16:22:00,
2013-08-19 09:27:00,80.5,55.9,29.81,SSE,163,0.0,1.0,43,0.00,,,0.00,WeatherCatV1.21B27,2013-08-19 16:27:00,
2013-08-19 09:32:00,80.7,56.7,29.81,SSE,163,0.0,1.0,44,0.00,,,0.00,WeatherCatV1.21B27,2013-08-19 16:32:00,
2013-08-19 09:37:00,81.0,57.6,29.81,SSE,163,0.0,1.0,45,0.00,,,0.00,WeatherCatV1.21B27,2013-08-19 16:37:00,
2013-08-19 09:42:00,81.4,57.4,29.81,SSE,163,0.0,1.0,44,0.00,,,0.00,WeatherCatV1.21B27,2013-08-19 16:42:00,
2013-08-19 09:47:00,81.8,57.7,29.81,SSE,163,0.0,0.0,44,0.00,,,0.00,WeatherCatV1.21B27,2013-08-19 16:47:00,
2013-08-19 09:52:00,82.1,58.0,29.81,SSE,148,0.0,2.0,44,0.00,,,0.00,WeatherCatV1.21B27,2013-08-19 16:52:00,
2013-08-19 09:57:00,81.4,57.4,29.81,SE,134,0.0,1.0,44,0.00,,,0.00,WeatherCatV1.21B27,2013-08-19 16:57:00,
2013-08-19 10:02:00,80.6,57.9,29.81,SE,134,0.0,0.0,46,0.00,,,0.00,WeatherCatV1.21B27,2013-08-19 17:02:00,
2013-08-19 10:07:00,80.1,58.0,29.81,SE,144,0.0,2.0,47,0.00,,,0.00,WeatherCatV1.21B27,2013-08-19 17:07:00,
2013-08-19 10:12:00,79.9,58.4,29.81,SE,144,0.0,2.0,48,0.00,,,0.00,WeatherCatV1.21B27,2013-08-19 17:12:00,
2013-08-19 10:17:00,80.2,58.1,29.81,SE,142,0.0,2.0,47,0.00,,,0.00,WeatherCatV1.21B27,2013-08-19 17:17:00,
2013-08-19 10:22:00,80.4,58.3,29.81,SE,142,0.0,2.0,47,0.00,,,0.00,WeatherCatV1.21B27,2013-08-19 17:22:00,
2013-08-19 10:27:00,80.5,58.4,29.81,SE,142,2.0,2.0,47,0.00,,,0.00,WeatherCatV1.21B27,2013-08-19 17:27:00,
2013-08-19 10:32:00,80.5,58.4,29.82,SE,146,1.0,2.0,47,0.00,,,0.00,WeatherCatV1.21B27,2013-08-19 17:32:00,
2013-08-19 10:37:00,80.4,58.9,29.82,SE,140,0.0,1.0,48,0.00,,,0.00,WeatherCatV1.21B27,2013-08-19 17:37:00,
2013-08-19 10:42:00,80.2,58.7,29.82,SE,140,0.0,1.0,48,0.00,,,0.00,WeatherCatV1.21B27,2013-08-19 17:42:00,
2013-08-19 10:47:00,79.8,57.8,29.82,SSE,149,1.0,2.0,47,0.00,,,0.00,WeatherCatV1.21B27,2013-08-19 17:47:00,
2013-08-19 10:52:00,79.8,58.9,29.82,SSE,152,0.0,1.0,49,0.00,,,0.00,WeatherCatV1.21B27,2013-08-19 17:52:00,
2013-08-19 10:57:00,80.6,58.5,29.82,SE,137,0.0,2.0,47,0.00,,,0.00,WeatherCatV1.21B27,2013-08-19 17:57:00,
2013-08-19 11:02:00,81.2,57.2,29.82,SSE,150,2.0,3.0,44,0.00,,,0.00,WeatherCatV1.21B27,2013-08-19 18:02:00,
2013-08-19 11:07:00,81.5,56.2,29.82,SE,140,0.0,1.0,42,0.00,,,0.00,WeatherCatV1.21B27,2013-08-19 18:07:00,
2013-08-19 11:12:00,82.1,56.7,29.82,SE,146,0.0,1.0,42,0.00,,,0.00,WeatherCatV1.21B27,2013-08-19 18:12:00,
2013-08-19 11:17:00,82.6,56.5,29.83,SE,145,0.0,2.0,41,0.00,,,0.00,WeatherCatV1.21B27,2013-08-19 18:17:00,
2013-08-19 11:22:00,83.2,56.3,29.83,SSE,148,1.0,1.0,40,0.00,,,0.00,WeatherCatV1.21B27,2013-08-19 18:22:00,
2013-08-19 11:27:00,83.7,57.5,29.83,SSE,148,1.0,2.0,41,0.00,,,0.00,WeatherCatV1.21B27,2013-08-19 18:27:00,
2013-08-19 11:32:00,84.2,57.2,29.82,SSE,148,0.0,2.0,40,0.00,,,0.00,WeatherCatV1.21B27,2013-08-19 18:32:00,
2013-08-19 11:37:00,84.9,58.5,29.82,SSE,162,2.0,2.0,41,0.00,,,0.00,WeatherCatV1.21B27,2013-08-19 18:37:00,
2013-08-19 11:42:00,85.6,57.8,29.82,SSE,149,1.0,2.0,39,0.00,,,0.00,WeatherCatV1.21B27,2013-08-19 18:42:00,
2013-08-19 11:47:00,86.0,58.8,29.82,SSE,156,2.0,3.0,40,0.00,,,0.00,WeatherCatV1.21B27,2013-08-19 18:47:00,
2013-08-19 11:52:00,86.4,59.9,29.82,SSE,162,0.0,2.0,41,0.00,,,0.00,WeatherCatV1.21B27,2013-08-19 18:52:00,
2013-08-19 11:57:00,87.4,58.6,29.82,SSE,152,1.0,3.0,38,0.00,,,0.00,WeatherCatV1.21B27,2013-08-19 18:57:00,
2013-08-19 12:02:00,87.9,59.1,29.82,SSE,158,0.0,2.0,38,0.00,,,0.00,WeatherCatV1.21B27,2013-08-19 19:02:00,
2013-08-19 12:07:00,87.8,59.0,29.82,SE,140,0.0,1.0,38,0.00,,,0.00,WeatherCatV1.21B27,2013-08-19 19:07:00,
2013-08-19 12:12:00,87.8,59.7,29.82,SSW,195,0.0,2.0,39,0.00,,,0.00,WeatherCatV1.21B27,2013-08-19 19:12:00,
2013-08-19 12:17:00,88.1,59.3,29.82,SSE,148,1.0,2.0,38,0.00,,,0.00,WeatherCatV1.21B27,2013-08-19 19:17:00,
2013-08-19 12:22:00,88.4,59.5,29.82,NE,54,0.0,2.0,38,0.00,,,0.00,WeatherCatV1.21B27,2013-08-19 19:22:00,
2013-08-19 12:27:00,88.5,58.9,29.82,SSE,152,0.0,1.0,37,0.00,,,0.00,WeatherCatV1.21B27,2013-08-19 19:27:00,
2013-08-19 12:32:00,89.0,60.0,29.82,SE,138,0.0,2.0,38,0.00,,,0.00,WeatherCatV1.21B27,2013-08-19 19:32:00,
2013-08-19 12:37:00,89.3,59.6,29.82,SSE,157,0.0,2.0,37,0.00,,,0.00,WeatherCatV1.21B27,2013-08-19 19:37:00,
2013-08-19 12:42:00,89.7,59.9,29.82,SE,144,2.0,2.0,37,0.00,,,0.00,WeatherCatV1.21B27,2013-08-19 19:42:00,
2013-08-19 12:47:00,89.9,60.1,29.81,SSE,162,2.0,3.0,37,0.00,,,0.00,WeatherCatV1.21B27,2013-08-19 19:47:00,
2013-08-19 12:52:00,89.9,59.3,29.81,West,271,0.0,2.0,36,0.00,,,0.00,WeatherCatV1.21B27,2013-08-19 19:52:00,
2013-08-19 12:57:00,89.8,59.2,29.81,SE,127,0.0,1.0,36,0.00,,,0.00,WeatherCatV1.21B27,2013-08-19 19:57:00,
2013-08-19 13:02:00,90.0,59.4,29.81,SE,128,0.0,1.0,36,0.00,,,0.00,WeatherCatV1.21B27,2013-08-19 20:02:00,
2013-08-19 13:07:00,90.3,58.9,29.81,SE,139,1.0,3.0,35,0.00,,,0.00,WeatherCatV1.21B27,2013-08-19 20:07:00,
2013-08-19 13:12:00,90.1,58.7,29.81,SE,136,0.0,3.0,35,0.00,,,0.00,WeatherCatV1.21B27,2013-08-19 20:12:00,
2013-08-19 13:17:00,89.7,59.2,29.81,SE,136,0.0,2.0,36,0.00,,,0.00,WeatherCatV1.21B27,2013-08-19 20:17:00,
2013-08-19 13:22:00,89.8,59.2,29.81,SSE,154,1.0,2.0,36,0.00,,,0.00,WeatherCatV1.21B27,2013-08-19 20:22:00,
2013-08-19 13:27:00,89.0,58.5,29.81,South,169,0.0,1.0,36,0.00,,,0.00,WeatherCatV1.21B27,2013-08-19 20:27:00,
2013-08-19 13:32:00,88.6,59.0,29.81,SE,136,0.0,2.0,37,0.00,,,0.00,WeatherCatV1.21B27,2013-08-19 20:32:00,
2013-08-19 13:37:00,89.0,58.5,29.81,SE,140,0.0,1.0,36,0.00,,,0.00,WeatherCatV1.21B27,2013-08-19 20:37:00,
2013-08-19 13:42:00,88.7,58.3,29.81,SSE,165,1.0,3.0,36,0.00,,,0.00,WeatherCatV1.21B27,2013-08-19 20:42:00,
2013-08-19 13:47:00,87.9,58.3,29.81,SE,135,0.0,2.0,37,0.00,,,0.00,WeatherCatV1.21B27,2013-08-19 20:47:00,
2013-08-19 13:52:00,86.9,58.2,29.81,SE,144,1.0,2.0,38,0.00,,,0.00,WeatherCatV1.21B27,2013-08-19 20:52:00,
2013-08-19 13:57:00,86.3,56.9,29.81,SE,139,1.0,2.0,37,0.00,,,0.00,WeatherCatV1.21B27,2013-08-19 20:57:00,
2013-08-19 14:02:00,85.6,57.8,29.81,SE,138,2.0,2.0,39,0.00,,,0.00,WeatherCatV1.21B27,2013-08-19 21:02:00,
2013-08-19 14:07:00,84.8,57.1,29.81,SE,139,1.0,2.0,39,0.00,,,0.00,WeatherCatV1.21B27,2013-08-19 21:07:00,
2013-08-19 14:12:00,84.1,55.7,29.81,SE,138,0.0,3.0,38,0.00,,,0.00,WeatherCatV1.21B27,2013-08-19 21:12:00,
2013-08-19 14:17:00,83.3,55.7,29.81,SE,138,3.0,3.0,39,0.00,,,0.00,WeatherCatV1.21B27,2013-08-19 21:17:00,
2013-08-19 14:22:00,82.5,55.0,29.81,SE,142,0.0,1.0,39,0.00,,,0.00,WeatherCatV1.21B27,2013-08-19 21:22:00,
2013-08-19 14:27:00,81.8,54.4,29.81,ENE,64,0.0,2.0,39,0.00,,,0.00,WeatherCatV1.21B27,2013-08-19 21:27:00,
2013-08-19 14:32:00,81.5,54.8,29.81,SE,146,0.0,3.0,40,0.00,,,0.00,WeatherCatV1.21B27,2013-08-19 21:32:00,
2013-08-19 14:37:00,81.1,54.5,29.81,SSE,147,0.0,3.0,40,0.00,,,0.00,WeatherCatV1.21B27,2013-08-19 21:37:00,
2013-08-19 14:42:00,80.7,54.1,29.81,SE,137,1.0,2.0,40,0.00,,,0.00,WeatherCatV1.21B27,2013-08-19 21:42:00,
2013-08-19 14:47:00,80.1,54.2,29.81,SE,142,0.0,1.0,41,0.00,,,0.00,WeatherCatV1.21B27,2013-08-19 21:47:00,
2013-08-19 14:52:00,80.1,53.6,29.81,SE,142,2.0,3.0,40,0.00,,,0.00,WeatherCatV1.21B27,2013-08-19 21:52:00,
2013-08-19 14:57:00,79.3,52.2,29.81,SE,145,1.0,1.0,39,0.00,,,0.00,WeatherCatV1.21B27,2013-08-19 21:57:00,
2013-08-19 15:02:00,79.0,52.6,29.81,SE,145,0.0,2.0,40,0.00,,,0.00,WeatherCatV1.21B27,2013-08-19 22:02:00,
2013-08-19 15:07:00,78.9,53.2,29.81,ESE,117,0.0,2.0,41,0.00,,,0.00,WeatherCatV1.21B27,2013-08-19 22:07:00,
2013-08-19 15:12:00,79.1,53.3,29.81,SE,128,0.0,2.0,41,0.00,,,0.00,WeatherCatV1.21B27,2013-08-19 22:12:00,
2013-08-19 15:17:00,78.9,53.8,29.81,SE,145,1.0,1.0,42,0.00,,,0.00,WeatherCatV1.21B27,2013-08-19 22:17:00,
2013-08-19 15:22:00,78.5,54.1,29.81,SE,140,0.0,2.0,43,0.00,,,0.00,WeatherCatV1.21B27,2013-08-19 22:22:00,
2013-08-19 15:27:00,78.0,54.3,29.81,ESE,117,0.0,3.0,44,0.00,,,0.00,WeatherCatV1.21B27,2013-08-19 22:27:00,
2013-08-19 15:32:00,77.4,54.4,29.80,NNW,339,0.0,2.0,45,0.00,,,0.00,WeatherCatV1.21B27,2013-08-19 22:32:00,
2013-08-19 15:37:00,77.3,54.9,29.80,NE,37,0.0,1.0,46,0.00,,,0.00,WeatherCatV1.21B27,2013-08-19 22:37:00,
2013-08-19 15:42:00,77.0,54.6,29.80,SE,135,0.0,3.0,46,0.00,,,0.00,WeatherCatV1.21B27,2013-08-19 22:42:00,
2013-08-19 15:47:00,76.8,55.0,29.80,SSE,150,1.0,2.0,47,0.00,,,0.00,WeatherCatV1.21B27,2013-08-19 22:47:00,
2013-08-19 15:52:00,76.5,54.8,29.80,SSE,166,0.0,1.0,47,0.00,,,0.00,WeatherCatV1.21B27,2013-08-19 22:52:00,
2013-08-19 15:57:00,76.2,55.6,29.80,SSE,149,0.0,3.0,49,0.00,,,0.00,WeatherCatV1.21B27,2013-08-19 22:57:00,
2013-08-19 16:02:00,76.0,55.4,29.80,SSE,161,0.0,1.0,49,0.00,,,0.00,WeatherCatV1.21B27,2013-08-19 23:02:00,
2013-08-19 16:07:00,76.1,55.5,29.80,SSE,148,0.0,0.0,49,0.00,,,0.00,WeatherCatV1.21B27,2013-08-19 23:07:00,
2013-08-19 16:12:00,76.5,55.9,29.80,SSE,148,0.0,0.0,49,0.00,,,0.00,WeatherCatV1.21B27,2013-08-19 23:12:00,
2013-08-19 16:17:00,76.9,55.7,29.79,SSE,157,0.0,1.0,48,0.00,,,0.00,WeatherCatV1.21B27,2013-08-19 23:17:00,
2013-08-19 16:22:00,76.8,55.0,29.79,SE,126,0.0,2.0,47,0.00,,,0.00,WeatherCatV1.21B27,2013-08-19 23:22:00,
2013-08-19 16:27:00,76.7,54.9,29.79,SE,126,0.0,0.0,47,0.00,,,0.00,WeatherCatV1.21B27,2013-08-19 23:27:00,
2013-08-19 16:32:00,76.7,54.9,29.78,SE,129,0.0,1.0,47,0.00,,,0.00,WeatherCatV1.21B27,2013-08-19 23:32:00,
2013-08-19 16:37:00,76.7,54.3,29.78,SE,129,0.0,2.0,46,0.00,,,0.00,WeatherCatV1.21B27,2013-08-19 23:37:00,
2013-08-19 16:42:00,76.7,54.9,29.78,SSE,147,2.0,2.0,47,0.00,,,0.00,WeatherCatV1.21B27,2013-08-19 23:42:00,
2013-08-19 16:47:00,76.5,54.8,29.78,SSE,149,0.0,1.0,47,0.00,,,0.00,WeatherCatV1.21B27,2013-08-19 23:47:00,
2013-08-19 16:52:00,76.5,54.8,29.78,SSE,148,0.0,0.0,47,0.00,,,0.00,WeatherCatV1.21B27,2013-08-19 23:52:00,
2013-08-19 16:57:00,76.6,54.8,29.78,SSE,148,0.0,1.0,47,0.00,,,0.00,WeatherCatV1.21B27,2013-08-19 23:57:00,
2013-08-19 17:02:00,76.4,55.2,29.78,SE,143,0.0,2.0,48,0.00,,,0.00,WeatherCatV1.21B27,2013-08-20 00:02:00,
2013-08-19 17:07:00,76.3,55.2,29.78,SE,144,1.0,1.0,48,0.00,,,0.00,WeatherCatV1.21B27,2013-08-20 00:07:00,
2013-08-19 17:12:00,76.1,55.0,29.78,SSE,159,0.0,1.0,48,0.00,,,0.00,WeatherCatV1.21B27,2013-08-20 00:12:00,
2013-08-19 17:17:00,75.8,55.8,29.78,SSE,161,0.0,0.0,50,0.00,,,0.00,WeatherCatV1.21B27,2013-08-20 00:17:00,
2013-08-19 17:22:00,75.4,55.5,29.78,SSE,162,1.0,1.0,50,0.00,,,0.00,WeatherCatV1.21B27,2013-08-20 00:22:00,
2013-08-19 17:27:00,74.8,56.0,29.78,SSE,160,0.0,1.0,52,0.00,,,0.00,WeatherCatV1.21B27,2013-08-20 00:27:00,
2013-08-19 17:32:00,74.3,56.0,29.78,SSE,160,0.0,1.0,53,0.00,,,0.00,WeatherCatV1.21B27,2013-08-20 00:32:00,
2013-08-19 17:37:00,73.6,55.9,29.78,SSE,160,0.0,1.0,54,0.00,,,0.00,WeatherCatV1.21B27,2013-08-20 00:37:00,
2013-08-19 17:42:00,72.7,55.6,29.78,SSE,160,0.0,1.0,55,0.00,,,0.00,WeatherCatV1.21B27,2013-08-20 00:42:00,
2013-08-19 17:47:00,71.7,55.6,29.78,SSE,160,0.0,1.0,57,0.00,,,0.00,WeatherCatV1.21B27,2013-08-20 00:47:00,
2013-08-19 17:52:00,70.8,55.8,29.78,SSE,160,0.0,0.0,59,0.00,,,0.00,WeatherCatV1.21B27,2013-08-20 00:52:00,
2013-08-19 17:57:00,70.3,55.7,29.78,SSE,160,0.0,0.0,60,0.00,,,0.00,WeatherCatV1.21B27,2013-08-20 00:57:00,
2013-08-19 18:02:00,70.0,55.9,29.77,SSE,160,0.0,1.0,61,0.00,,,0.00,WeatherCatV1.21B27,2013-08-20 01:02:00,
2013-08-19 18:07:00,69.8,55.7,29.77,SSE,160,0.0,1.0,61,0.00,,,0.00,WeatherCatV1.21B27,2013-08-20 01:07:00,
2013-08-19 18:12:00,69.6,56.0,29.77,SSE,160,0.0,0.0,62,0.00,,,0.00,WeatherCatV1.21B27,2013-08-20 01:12:00,
2013-08-19 18:17:00,69.4,55.8,29.77,SSE,160,0.0,1.0,62,0.00,,,0.00,WeatherCatV1.21B27,2013-08-20 01:17:00,
2013-08-19 18:22:00,69.2,55.6,29.77,SSE,160,0.0,0.0,62,0.00,,,0.00,WeatherCatV1.21B27,2013-08-20 01:22:00,
2013-08-19 18:27:00,68.9,55.3,29.77,SSE,160,0.0,0.0,62,0.00,,,0.00,WeatherCatV1.21B27,2013-08-20 01:27:00,
2013-08-19 18:32:00,68.5,55.4,29.77,SSE,160,0.0,0.0,63,0.00,,,0.00,WeatherCatV1.21B27,2013-08-20 01:32:00,
2013-08-19 18:37:00,68.1,55.5,29.77,SSE,160,0.0,0.0,64,0.00,,,0.00,WeatherCatV1.21B27,2013-08-20 01:37:00,
2013-08-19 18:42:00,67.7,55.5,29.77,SSE,160,0.0,0.0,65,0.00,,,0.00,WeatherCatV1.21B27,2013-08-20 01:42:00,
2013-08-19 18:47:00,67.6,55.4,29.77,SSE,160,0.0,0.0,65,0.00,,,0.00,WeatherCatV1.21B27,2013-08-20 01:47:00,
2013-08-19 18:52:00,67.4,55.2,29.77,SSE,160,0.0,0.0,65,0.00,,,0.00,WeatherCatV1.21B27,2013-08-20 01:52:00,
2013-08-19 18:57:00,67.2,55.0,29.77,SSE,160,0.0,0.0,65,0.00,,,0.00,WeatherCatV1.21B27,2013-08-20 01:57:00,
2013-08-19 19:02:00,67.0,54.8,29.77,SSE,160,0.0,0.0,65,0.00,,,0.00,WeatherCatV1.21B27,2013-08-20 02:02:00,
2013-08-19 19:07:00,66.9,54.7,29.77,SSE,160,0.0,0.0,65,0.00,,,0.00,WeatherCatV1.21B27,2013-08-20 02:07:00,
2013-08-19 19:12:00,66.6,54.5,29.77,SSE,160,0.0,0.0,65,0.00,,,0.00,WeatherCatV1.21B27,2013-08-20 02:12:00,
2013-08-19 19:17:00,66.2,54.5,29.77,SSE,160,0.0,0.0,66,0.00,,,0.00,WeatherCatV1.21B27,2013-08-20 02:17:00,
2013-08-19 19:22:00,65.9,54.2,29.77,SSE,160,0.0,0.0,66,0.00,,,0.00,WeatherCatV1.21B27,2013-08-20 02:22:00,
2013-08-19 19:27:00,65.8,54.5,29.77,SSE,160,0.0,0.0,67,0.00,,,0.00,WeatherCatV1.21B27,2013-08-20 02:27:00,
2013-08-19 19:32:00,65.7,54.4,29.77,SSE,160,0.0,0.0,67,0.00,,,0.00,WeatherCatV1.21B27,2013-08-20 02:32:00,
2013-08-19 19:37:00,65.6,54.3,29.77,SSE,160,0.0,0.0,67,0.00,,,0.00,WeatherCatV1.21B27,2013-08-20 02:37:00,
2013-08-19 19:42:00,65.4,54.2,29.77,SSE,160,0.0,0.0,67,0.00,,,0.00,WeatherCatV1.21B27,2013-08-20 02:42:00,
2013-08-19 19:47:00,65.2,54.4,29.77,SSE,160,0.0,0.0,68,0.00,,,0.00,WeatherCatV1.21B27,2013-08-20 02:47:00,
2013-08-19 19:52:00,65.0,54.2,29.77,SSE,160,0.0,0.0,68,0.00,,,0.00,WeatherCatV1.21B27,2013-08-20 02:52:00,
2013-08-19 19:57:00,64.7,53.9,29.77,SSE,160,0.0,0.0,68,0.00,,,0.00,WeatherCatV1.21B27,2013-08-20 02:57:00,
2013-08-19 20:02:00,64.2,53.8,29.78,SSE,160,0.0,0.0,69,0.00,,,0.00,WeatherCatV1.21B27,2013-08-20 03:02:00,
2013-08-19 20:07:00,63.5,53.9,29.78,SSE,160,0.0,1.0,71,0.00,,,0.00,WeatherCatV1.21B27,2013-08-20 03:07:00,
2013-08-19 20:12:00,63.1,53.9,29.78,SSE,160,0.0,0.0,72,0.00,,,0.00,WeatherCatV1.21B27,2013-08-20 03:12:00,
2013-08-19 20:17:00,63.2,54.0,29.78,SSE,160,0.0,0.0,72,0.00,,,0.00,WeatherCatV1.21B27,2013-08-20 03:17:00,
2013-08-19 20:22:00,63.3,54.5,29.78,SSE,160,0.0,0.0,73,0.00,,,0.00,WeatherCatV1.21B27,2013-08-20 03:22:00,
2013-08-19 20:27:00,63.5,53.9,29.78,SSE,160,0.0,0.0,71,0.00,,,0.00,WeatherCatV1.21B27,2013-08-20 03:27:00,
2013-08-19 20:32:00,63.5,53.9,29.79,SSE,160,0.0,0.0,71,0.00,,,0.00,WeatherCatV1.21B27,2013-08-20 03:32:00,
2013-08-19 20:37:00,63.3,53.7,29.79,SSE,160,0.0,0.0,71,0.00,,,0.00,WeatherCatV1.21B27,2013-08-20 03:37:00,
2013-08-19 20:42:00,63.3,54.1,29.79,SSE,160,0.0,1.0,72,0.00,,,0.00,WeatherCatV1.21B27,2013-08-20 03:42:00,
2013-08-19 20:47:00,63.4,54.6,29.79,SSE,160,0.0,0.0,73,0.00,,,0.00,WeatherCatV1.21B27,2013-08-20 03:47:00,
2013-08-19 20:52:00,63.7,54.5,29.79,SSE,160,0.0,0.0,72,0.00,,,0.00,WeatherCatV1.21B27,2013-08-20 03:52:00,
2013-08-19 20:57:00,64.0,54.8,29.79,SSE,160,0.0,0.0,72,0.00,,,0.00,WeatherCatV1.21B27,2013-08-20 03:57:00,
2013-08-19 21:01:00,64.1,54.9,29.80,SSE,160,0.0,0.0,72,0.00,,,0.00,WeatherCatV1.21B27,2013-08-20 04:01:00,
2013-08-19 21:02:00,64.2,54.6,29.80,SSE,160,0.0,0.0,71,0.00,,,0.00,WeatherCatV1.21B27,2013-08-20 04:02:00,
2013-08-19 21:07:00,64.4,54.4,29.80,SSE,160,0.0,0.0,70,0.00,,,0.00,WeatherCatV1.21B27,2013-08-20 04:07:00,
2013-08-19 21:12:00,64.4,54.4,29.80,SSE,160,0.0,0.0,70,0.00,,,0.00,WeatherCatV1.21B27,2013-08-20 04:12:00,
2013-08-19 21:17:00,64.1,54.1,29.81,SSE,160,0.0,0.0,70,0.00,,,0.00,WeatherCatV1.21B27,2013-08-20 04:17:00,
2013-08-19 21:22:00,63.8,53.8,29.81,SSE,160,0.0,0.0,70,0.00,,,0.00,WeatherCatV1.21B27,2013-08-20 04:22:00,
2013-08-19 21:27:00,63.5,53.1,29.81,SSE,160,0.0,0.0,69,0.00,,,0.00,WeatherCatV1.21B27,2013-08-20 04:27:00,
2013-08-19 21:32:00,63.3,53.0,29.81,SSE,160,0.0,0.0,69,0.00,,,0.00,WeatherCatV1.21B27,2013-08-20 04:32:00,
2013-08-19 21:37:00,63.1,52.8,29.81,SSE,160,0.0,0.0,69,0.00,,,0.00,WeatherCatV1.21B27,2013-08-20 04:37:00,
2013-08-19 21:42:00,63.0,52.7,29.81,SSE,160,0.0,0.0,69,0.00,,,0.00,WeatherCatV1.21B27,2013-08-20 04:42:00,
2013-08-19 21:47:00,63.0,52.3,29.82,SSE,160,0.0,0.0,68,0.00,,,0.00,WeatherCatV1.21B27,2013-08-20 04:47:00,
2013-08-19 21:52:00,62.9,52.2,29.82,SSE,160,0.0,0.0,68,0.00,,,0.00,WeatherCatV1.21B27,2013-08-20 04:52:00,
2013-08-19 21:57:00,62.9,52.6,29.82,SSE,160,0.0,0.0,69,0.00,,,0.00,WeatherCatV1.21B27,2013-08-20 04:57:00,
2013-08-19 22:02:00,62.7,52.4,29.81,SSE,160,0.0,0.0,69,0.00,,,0.00,WeatherCatV1.21B27,2013-08-20 05:02:00,
2013-08-19 22:07:00,62.7,52.4,29.81,SSE,160,0.0,0.0,69,0.00,,,0.00,WeatherCatV1.21B27,2013-08-20 05:07:00,
2013-08-19 22:12:00,62.7,52.4,29.81,SSE,160,0.0,0.0,69,0.00,,,0.00,WeatherCatV1.21B27,2013-08-20 05:12:00,
2013-08-19 22:17:00,62.7,52.4,29.81,SSE,160,0.0,0.0,69,0.00,,,0.00,WeatherCatV1.21B27,2013-08-20 05:17:00,
2013-08-19 22:22:00,62.7,52.4,29.81,SSE,160,0.0,0.0,69,0.00,,,0.00,WeatherCatV1.21B27,2013-08-20 05:22:00,
2013-08-19 22:27:00,62.8,52.5,29.81,SSE,160,0.0,0.0,69,0.00,,,0.00,WeatherCatV1.21B27,2013-08-20 05:27:00,
2013-08-19 22:32:00,62.8,52.1,29.83,SSE,160,0.0,0.0,68,0.00,,,0.00,WeatherCatV1.21B27,2013-08-20 05:32:00,
2013-08-19 22:37:00,62.9,51.8,29.83,SSE,160,0.0,0.0,67,0.00,,,0.00,WeatherCatV1.21B27,2013-08-20 05:37:00,
2013-08-19 22:42:00,63.0,51.9,29.83,SSE,160,0.0,0.0,67,0.00,,,0.00,WeatherCatV1.21B27,2013-08-20 05:42:00,
2013-08-19 22:47:00,63.2,52.0,29.83,SSE,160,0.0,0.0,67,0.00,,,0.00,WeatherCatV1.21B27,2013-08-20 05:47:00,
2013-08-19 22:52:00,63.4,52.2,29.83,SSE,160,1.0,2.0,67,0.00,,,0.00,WeatherCatV1.21B27,2013-08-20 05:52:00,
2013-08-19 22:57:00,63.5,51.9,29.83,NW,314,2.0,2.0,66,0.00,,,0.00,WeatherCatV1.21B27,2013-08-20 05:57:00,
2013-08-19 23:02:00,63.7,52.9,29.83,NW,321,0.0,0.0,68,0.00,,,0.00,WeatherCatV1.21B27,2013-08-20 06:02:00,
2013-08-19 23:07:00,64.0,54.8,29.83,NW,321,0.0,0.0,72,0.00,,,0.00,WeatherCatV1.21B27,2013-08-20 06:07:00,
2013-08-19 23:12:00,64.5,54.9,29.83,NW,321,0.0,0.0,71,0.00,,,0.00,WeatherCatV1.21B27,2013-08-20 06:12:00,
2013-08-19 23:17:00,64.8,55.2,29.82,NW,321,0.0,0.0,71,0.00,,,0.00,WeatherCatV1.21B27,2013-08-20 06:17:00,
2013-08-19 23:22:00,65.4,54.6,29.82,SSE,162,0.0,1.0,68,0.00,,,0.00,WeatherCatV1.21B27,2013-08-20 06:22:00,
2013-08-19 23:27:00,65.9,55.0,29.82,SSE,162,0.0,0.0,68,0.00,,,0.00,WeatherCatV1.21B27,2013-08-20 06:27:00,
2013-08-19 23:32:00,66.2,55.3,29.82,SSE,162,0.0,0.0,68,0.00,,,0.00,WeatherCatV1.21B27,2013-08-20 06:32:00,
2013-08-19 23:37:00,66.8,55.5,29.82,NW,316,1.0,2.0,67,0.00,,,0.00,WeatherCatV1.21B27,2013-08-20 06:37:00,
2013-08-19 23:42:00,68.3,55.2,29.82,NNW,338,2.0,3.0,63,0.00,,,0.00,WeatherCatV1.21B27,2013-08-20 06:42:00,
2013-08-19 23:47:00,70.3,55.3,29.81,NNW,333,2.0,3.0,59,0.00,,,0.00,WeatherCatV1.21B27,2013-08-20 06:47:00,
2013-08-19 23:52:00,71.7,54.2,29.81,NNW,329,1.0,3.0,54,0.00,,,0.00,WeatherCatV1.21B27,2013-08-20 06:52:00,
2013-08-19 23:57:00,72.4,53.8,29.81,NNW,329,0.0,1.0,52,0.00,,,0.00,WeatherCatV1.21B27,2013-08-20 06:57:00,